When you browse on this site, cookies collect data to enhance your experience and personalize the content and advertising you see.
Visit our Privacy Policy to learn more. By continuing to use the site, you agree to this use of cookies and data.
  • In Sweden
  • List of Countries
  • For 7 days
  • Water Temperature
  • Weather Map
  • Weather Widgets
  • user-avatar
    Login

    Hourly Weather Bodø

    Today, 26 May, Tuesday

    Time Temperature Precipitation Wind Pressure Humidity
    00:00 +4°C° 0 mm 4 mps 771 mmHg 87%
    01:00 +4°C° 0 mm 4 mps 771 mmHg 84%
    02:00 +5°C° 0 mm 4 mps 771 mmHg 80%
    03:00 +5°C° 0 mm 5 mps 771 mmHg 76%
    04:00 +6°C° 0 mm 5 mps 771 mmHg 72%
    05:00 +6°C° 0 mm 5 mps 770 mmHg 73%
    06:00 +7°C° 0 mm 5 mps 770 mmHg 73%
    07:00 +7°C° 0 mm 5 mps 770 mmHg 74%
    08:00 +8°C° 0 mm 4 mps 770 mmHg 74%
    09:00 +8°C° 0 mm 4 mps 770 mmHg 75%
    10:00 +10°C° 0 mm 4 mps 770 mmHg 75%
    11:00 +10°C° 0 mm 4 mps 770 mmHg 75%
    12:00 +10°C° 0 mm 4 mps 770 mmHg 75%
    13:00 +11°C° 0 mm 4 mps 769 mmHg 75%
    14:00 +10°C° 0.1 mm 5 mps 769 mmHg 75%
    15:00 +9°C° 0.1 mm 6 mps 768 mmHg 76%
    16:00 +9°C° 0.1 mm 6 mps 768 mmHg 77%
    17:00 +9°C° 0.2 mm 6 mps 768 mmHg 79%
    18:00 +8°C° 0.2 mm 5 mps 767 mmHg 81%
    19:00 +8°C° 0.2 mm 4 mps 767 mmHg 83%
    20:00 +8°C° 0 mm 5 mps 766 mmHg 84%
    21:00 +7°C° 0 mm 5 mps 766 mmHg 84%
    22:00 +7°C° 0 mm 5 mps 766 mmHg 84%
    23:00 +7°C° 0.2 mm 6 mps 766 mmHg 85%

    Tomorrow, 27 May, Wednesday

    Time Temperature Precipitation Wind Pressure Humidity
    00:00 +5°C° 0.2 mm 6 mps 765 mmHg 86%
    01:00 +5°C° 0.2 mm 6 mps 765 mmHg 87%
    02:00 +5°C° 0.4 mm 6 mps 765 mmHg 89%
    03:00 +5°C° 0.4 mm 6 mps 765 mmHg 90%
    04:00 +5°C° 0.4 mm 6 mps 764 mmHg 91%
    05:00 +5°C° 0.3 mm 6 mps 764 mmHg 90%
    06:00 +5°C° 0.3 mm 6 mps 764 mmHg 88%
    07:00 +5°C° 0.3 mm 6 mps 764 mmHg 87%
    08:00 +5°C° 0.3 mm 7 mps 764 mmHg 86%
    09:00 +5°C° 0.3 mm 7 mps 764 mmHg 86%
    10:00 +6°C° 0.3 mm 7 mps 764 mmHg 85%
    11:00 +5°C° 0.4 mm 7 mps 764 mmHg 87%
    12:00 +5°C° 0.4 mm 7 mps 764 mmHg 88%
    13:00 +5°C° 0.4 mm 6 mps 764 mmHg 90%
    14:00 +5°C° 0.3 mm 7 mps 765 mmHg 88%
    15:00 +4°C° 0.3 mm 7 mps 765 mmHg 87%
    16:00 +4°C° 0.3 mm 8 mps 765 mmHg 86%
    17:00 +4°C° 0.5 mm 8 mps 765 mmHg 88%
    18:00 +4°C° 0.5 mm 8 mps 765 mmHg 91%
    19:00 +2°C° 0.5 mm 8 mps 766 mmHg 93%
    20:00 +2°C° 0.7 mm 8 mps 766 mmHg 94%
    21:00 +3°C° 0.7 mm 7 mps 766 mmHg 94%
    22:00 +3°C° 0.7 mm 7 mps 766 mmHg 95%
    23:00 +3°C° 0.5 mm 7 mps 766 mmHg 94%

    Day after tomorrow, 28 May, Thursday

    Time Temperature Precipitation Wind Pressure Humidity
    00:00 +3°C° 0.5 mm 7 mps 766 mmHg 94%
    01:00 +3°C° 0.5 mm 6 mps 766 mmHg 93%
    02:00 +3°C° 0.3 mm 7 mps 766 mmHg 93%
    03:00 +3°C° 0.3 mm 7 mps 766 mmHg 94%
    04:00 +3°C° 0.3 mm 7 mps 766 mmHg 94%
    05:00 +3°C° 0.2 mm 7 mps 765 mmHg 91%
    06:00 +4°C° 0.2 mm 6 mps 765 mmHg 89%
    07:00 +4°C° 0.2 mm 6 mps 765 mmHg 86%
    08:00 +4°C° 0.8 mm 6 mps 765 mmHg 89%
    09:00 +4°C° 0.8 mm 6 mps 765 mmHg 92%
    10:00 +3°C° 0.8 mm 6 mps 765 mmHg 95%
    11:00 +5°C° 0.5 mm 5 mps 765 mmHg 94%
    12:00 +5°C° 0.5 mm 5 mps 766 mmHg 93%
    13:00 +5°C° 0.5 mm 4 mps 766 mmHg 92%
    14:00 +5°C° 0.2 mm 4 mps 766 mmHg 92%
    15:00 +5°C° 0.2 mm 5 mps 767 mmHg 91%
    16:00 +5°C° 0.2 mm 5 mps 767 mmHg 91%
    17:00 +5°C° 0.1 mm 5 mps 767 mmHg 90%
    18:00 +5°C° 0.1 mm 5 mps 768 mmHg 90%
    19:00 +5°C° 0.1 mm 5 mps 768 mmHg 89%
    20:00 +5°C° 0 mm 5 mps 768 mmHg 90%
    21:00 +5°C° 0 mm 5 mps 768 mmHg 90%
    22:00 +3°C° 0 mm 6 mps 768 mmHg 90%
    23:00 +3°C° 0.2 mm 6 mps 768 mmHg 90%

    29 May, Friday

    Time Temperature Precipitation Wind Pressure Humidity
    00:00 +3°C° 0.2 mm 6 mps 768 mmHg 90%
    01:00 +3°C° 0.2 mm 6 mps 768 mmHg 90%
    02:00 +4°C° 0.8 mm 6 mps 768 mmHg 92%
    03:00 +4°C° 0.8 mm 6 mps 768 mmHg 94%
    04:00 +4°C° 0.8 mm 6 mps 768 mmHg 97%
    05:00 +4°C° 0.8 mm 6 mps 768 mmHg 97%
    06:00 +4°C° 0.8 mm 6 mps 768 mmHg 97%
    07:00 +5°C° 0.8 mm 6 mps 768 mmHg 97%
    08:00 +5°C° 1 mm 6 mps 768 mmHg 97%
    09:00 +5°C° 1 mm 6 mps 768 mmHg 97%
    10:00 +5°C° 1 mm 6 mps 768 mmHg 97%
    11:00 +5°C° 0.7 mm 6 mps 769 mmHg 96%
    12:00 +5°C° 0.7 mm 6 mps 769 mmHg 95%
    13:00 +7°C° 0.7 mm 6 mps 769 mmHg 94%
    14:00 +7°C° 0.2 mm 6 mps 769 mmHg 94%
    15:00 +7°C° 0.2 mm 5 mps 770 mmHg 95%
    16:00 +7°C° 0.2 mm 5 mps 770 mmHg 95%
    17:00 +7°C° 0.1 mm 5 mps 770 mmHg 94%
    18:00 +7°C° 0.1 mm 5 mps 770 mmHg 93%
    19:00 +7°C° 0.1 mm 4 mps 770 mmHg 93%
    20:00 +6°C° 0 mm 4 mps 770 mmHg 92%
    21:00 +6°C° 0 mm 4 mps 771 mmHg 92%
    22:00 +7°C° 0 mm 3 mps 771 mmHg 91%
    23:00 +7°C° 0 mm 3 mps 771 mmHg 90%

    30 May, Saturday

    Time Temperature Precipitation Wind Pressure Humidity
    00:00 +5°C° 0 mm 3 mps 771 mmHg 89%
    01:00 +5°C° 0 mm 3 mps 771 mmHg 88%
    02:00 +7°C° 0 mm 3 mps 771 mmHg 86%
    03:00 +7°C° 0 mm 3 mps 772 mmHg 85%
    04:00 +7°C° 0 mm 3 mps 772 mmHg 84%
    05:00 +8°C° 0 mm 2 mps 772 mmHg 82%
    06:00 +8°C° 0 mm 2 mps 772 mmHg 79%
    07:00 +9°C° 0 mm 2 mps 772 mmHg 77%
    08:00 +9°C° 0 mm 2 mps 772 mmHg 75%
    09:00 +10°C° 0 mm 2 mps 772 mmHg 73%
    10:00 +12°C° 0 mm 1 mps 772 mmHg 70%
    11:00 +12°C° 0 mm 1 mps 772 mmHg 69%
    12:00 +13°C° 0 mm 2 mps 772 mmHg 68%
    13:00 +13°C° 0 mm 2 mps 772 mmHg 66%
    14:00 +13°C° 0 mm 1 mps 772 mmHg 66%
    15:00 +14°C° 0 mm 1 mps 772 mmHg 66%
    16:00 +14°C° 0 mm 1 mps 772 mmHg 66%
    17:00 +14°C° 0 mm 1 mps 772 mmHg 67%
    18:00 +14°C° 0 mm 1 mps 772 mmHg 68%
    19:00 +14°C° 0 mm 1 mps 772 mmHg 69%
    20:00 +13°C° 0 mm 2 mps 772 mmHg 70%
    21:00 +13°C° 0 mm 2 mps 772 mmHg 71%
    22:00 +12°C° 0 mm 2 mps 772 mmHg 72%
    23:00 +12°C° 0 mm 2 mps 772 mmHg 71%

    31 May, Sunday

    Time Temperature Precipitation Wind Pressure Humidity
    00:00 +12°C° 0 mm 2 mps 772 mmHg 70%
    01:00 +12°C° 0 mm 2 mps 771 mmHg 69%
    02:00 +13°C° 0 mm 2 mps 771 mmHg 69%
    03:00 +13°C° 0 mm 2 mps 771 mmHg 68%
    04:00 +13°C° 0 mm 2 mps 771 mmHg 67%
    05:00 +14°C° 0 mm 2 mps 771 mmHg 65%
    06:00 +15°C° 0 mm 2 mps 771 mmHg 63%
    07:00 +16°C° 0 mm 2 mps 771 mmHg 61%
    08:00 +17°C° 0 mm 2 mps 770 mmHg 59%
    09:00 +19°C° 0 mm 1 mps 770 mmHg 56%
    10:00 +20°C° 0 mm 1 mps 770 mmHg 54%
    11:00 +20°C° 0 mm 1 mps 770 mmHg 54%
    12:00 +20°C° 0 mm 1 mps 770 mmHg 53%
    13:00 +21°C° 0 mm 1 mps 770 mmHg 53%
    14:00 +21°C° 0 mm 1 mps 770 mmHg 53%
    15:00 +21°C° 0 mm 1 mps 770 mmHg 53%
    16:00 +20°C° 0 mm 1 mps 770 mmHg 54%
    17:00 +19°C° 0 mm 2 mps 770 mmHg 56%
    18:00 +18°C° 0 mm 2 mps 769 mmHg 58%
    19:00 +18°C° 0 mm 2 mps 769 mmHg 60%
    20:00 +17°C° 0 mm 2 mps 769 mmHg 63%
    21:00 +16°C° 0 mm 2 mps 769 mmHg 67%
    22:00 +15°C° 0 mm 2 mps 769 mmHg 70%
    23:00 +14°C° 0 mm 2 mps 769 mmHg 71%
    Show more